Starlink 11572

operational
NORAD ID: 62990 Int'l Des: 2025-031 Owner: SPXS Country: US Constellation: starlink
LEOCIRCULAR

Starlink 11572について

説明を読み込み中...

リアルタイム位置

3D地球を読み込み中...

次回通過

高度履歴

Altitude vs Time

uPlot chart will show altitude changes over time

軌道要素

1 62990U 25031K 25304.67445970 .00245018 00000-0 18536-2 0 9998
2 62990 42.9985 58.9434 0002752 315.6525 44.4122 15.70885416 42458
Epoch: Oct 31, 2025 • Age: 16 hours

現在のステータス

高度 365.8 km
速度 7.69 km/s
衛星直下点 -36.76°S, 119.78°E
打ち上げ日 Feb 11, 2025
運用期間 0.7 years
タイプ internet

技術仕様

分類 Payload
質量 960.00 kg
乾燥質量 910.00 kg
総質量 960.00 kg
長さ 0.30 m
直径 4.10 m
スパン 29.00 m
形状 Box + pan
製造者 SPXS
バスタイプ Starlink V2MD
フェーズステータス In Orbit
所有者/国 SPXS/US

大規模コンステレーション

Loading constellations...